Weather History for KAPN - July, 2013

Change the Weather History Date:

Saturday, July 27, 2013

  Actual Average Record
Temperature  
Mean Temperature 65 °F 68 °F  
Max Temperature 73 °F 79 °F 96 °F (1955)
Min Temperature 56 °F 56 °F 39 °F (1926)
Degree Days  
Heating Degree Days 0 1  
Month to date heating degree days 39 37  
Since 1 June heating degree days 175 180  
Since 1 July heating degree days 39 37  
Cooling Degree Days 0 4  
Month to date cooling degree days 128 105  
Year to date cooling degree days 205 174  
Since 1 June cooling degree days 192 161  
Growing Degree Days 16 (Base 50)    
Moisture  
Dew Point 60 °F    
Average Humidity 87    
Maximum Humidity 100    
Minimum Humidity 73    
Precipitation  
Precipitation 1.61 in 0.10 in 1.61 in (2013)
Month to date precipitation 3.43 2.65  
Year to date precipitation 20.39 15.17  
Sea Level Pressure  
Sea Level Pressure 29.80 in    
Wind  
Wind Speed 5 mph (NNW)    
Max Wind Speed 18 mph    
Max Gust Speed 24 mph    
Visibility 8 miles    
Events Fog , Rain , Thunderstorm    
T = Trace of Precipitation, MM = Missing Value Source: NWS Daily Summary

Daily Weather History Graph

Daily Weather History Graph

Search for Another Location

Airport or City:

Trip Planner

Search our weather history database for the weather conditions in past years. The results will help you decide how hot, cold, wet, or windy it might be!

Date:

Astronomy

Jul. 27, 2013 Rise Set
Actual Time 6:14 AM EDT 9:06 PM EDT
Civil Twilight 5:39 AM EDT 9:41 PM EDT
Nautical Twilight 4:55 AM EDT 10:24 PM EDT
Astronomical Twilight 4:03 AM EDT 11:15 PM EDT
Moon 11:33 PM EDT (7/27) 12:12 PM EDT (7/27)
Length of Visible Light 16h 01m
Length of Day
14h 52m
Waning Gibbous, 71% of the Moon is Illuminated
Jul 27
Waning Gibbous
Jul 29
Last Quarter
Aug 6
New
Aug 14
First Quarter
Aug 20
Full

Hourly Weather History & Observations

Time (EDT) Temp. Dew Point Humidity Pressure Visibility Wind Dir Wind Speed Gust Speed Precip Events Conditions
12:54 AM 62.1 °F 61.0 °F 96% 29.86 in 9.0 mi SSE 4.6 mph - 0.06 in   Scattered Clouds
1:29 AM 62.6 °F 62.6 °F 100% 29.86 in 9.0 mi South 3.5 mph - N/A   Overcast
1:36 AM 62.6 °F 60.8 °F 94% 29.86 in 8.0 mi SSE 4.6 mph - N/A   Overcast
1:54 AM 61.0 °F 61.0 °F 100% 29.85 in 4.0 mi Calm Calm - N/A   Mostly Cloudy
2:19 AM 62.6 °F 60.8 °F 94% 29.86 in 8.0 mi Calm Calm - N/A   Mostly Cloudy
2:51 AM 62.6 °F 62.6 °F 100% 29.85 in 8.0 mi Calm Calm - N/A   Overcast
2:54 AM 63.0 °F 62.1 °F 97% 29.84 in 7.0 mi Calm Calm - N/A   Overcast
3:10 AM 62.6 °F 62.6 °F 100% 29.85 in 7.0 mi Calm Calm - N/A   Overcast
3:54 AM 63.0 °F 62.1 °F 97% 29.84 in 8.0 mi Calm Calm - N/A   Overcast
4:39 AM 62.6 °F 62.6 °F 100% 29.84 in 9.0 mi South 3.5 mph - N/A   Overcast
4:54 AM 63.0 °F 61.0 °F 93% 29.84 in 10.0 mi Calm Calm - N/A   Overcast
5:54 AM 62.1 °F 61.0 °F 96% 29.83 in 5.0 mi Calm Calm - N/A   Overcast
6:54 AM 62.1 °F 61.0 °F 96% 29.84 in 3.0 mi Calm Calm - N/A   Overcast
7:54 AM 63.0 °F 61.0 °F 93% 29.84 in 6.0 mi Calm Calm - N/A   Scattered Clouds
8:45 AM 64.4 °F 60.8 °F 88% 29.84 in 8.0 mi Calm Calm - N/A   Mostly Cloudy
8:54 AM 64.9 °F 62.1 °F 90% 29.83 in 9.0 mi Calm Calm - N/A   Mostly Cloudy
9:08 AM 64.4 °F 62.6 °F 94% 29.84 in 10.0 mi Calm Calm - N/A   Mostly Cloudy
9:15 AM 64.4 °F 60.8 °F 88% 29.84 in 10.0 mi Calm Calm - N/A   Mostly Cloudy
9:34 AM 64.4 °F 60.8 °F 88% 29.84 in 9.0 mi North 5.8 mph - N/A   Mostly Cloudy
9:54 AM 64.9 °F 61.0 °F 87% 29.83 in 10.0 mi North 4.6 mph - N/A   Overcast
10:03 AM 66.2 °F 60.8 °F 83% 29.83 in 10.0 mi NNE 3.5 mph - N/A   Overcast
10:54 AM 66.0 °F 60.1 °F 81% 29.82 in 10.0 mi Calm Calm - N/A   Overcast
11:27 AM 68.0 °F 60.8 °F 78% 29.82 in 10.0 mi Calm Calm - N/A   Mostly Cloudy
11:54 AM 68.0 °F 62.1 °F 81% 29.81 in 10.0 mi SE 3.5 mph - N/A   Scattered Clouds
12:34 PM 69.8 °F 62.6 °F 78% 29.80 in 10.0 mi East 4.6 mph - N/A   Mostly Cloudy
12:54 PM 71.1 °F 63.0 °F 75% 29.79 in 10.0 mi East 8.1 mph - N/A   Mostly Cloudy
1:12 PM 71.6 °F 62.6 °F 73% 29.79 in 10.0 mi ESE 8.1 mph - N/A   Scattered Clouds
1:38 PM 69.8 °F 62.6 °F 78% 29.79 in 10.0 mi NE 11.5 mph - N/A   Mostly Cloudy
1:54 PM 66.9 °F 61.0 °F 81% 29.79 in 10.0 mi NNE 10.4 mph - N/A   Overcast
2:04 PM 64.4 °F 60.8 °F 88% 29.79 in 10.0 mi North 9.2 mph - N/A   Overcast
2:49 PM 66.2 °F 60.8 °F 83% 29.78 in 10.0 mi NE 13.8 mph 20.7 mph N/A   Overcast
2:54 PM 66.0 °F 60.1 °F 81% 29.78 in 10.0 mi NNE 11.5 mph - N/A   Overcast
3:11 PM 66.2 °F 60.8 °F 83% 29.78 in 10.0 mi NNE 12.7 mph - N/A   Overcast
3:22 PM 66.2 °F 60.8 °F 83% 29.76 in 10.0 mi NNE 13.8 mph - N/A   Overcast
3:34 PM 62.6 °F 60.8 °F 94% 29.76 in 10.0 mi North 13.8 mph - N/A Thunderstorm Thunderstorm
3:47 PM 62.6 °F 60.8 °F 94% 29.78 in 9.0 mi West 8.1 mph - 0.00 in Rain , Thunderstorm Light Thunderstorms and Rain
3:54 PM 61.0 °F 60.1 °F 97% 29.79 in 2.5 mi WSW 16.1 mph 24.2 mph 0.03 in Rain , Thunderstorm Heavy Thunderstorms and Rain
3:59 PM 60.8 °F 59.0 °F 94% 29.79 in 0.8 mi WSW 9.2 mph 24.2 mph 0.10 in Rain , Thunderstorm Heavy Thunderstorms and Rain
4:12 PM 59.0 °F 57.2 °F 94% 29.79 in 0.5 mi NNE 16.1 mph 21.9 mph 0.88 in Fog , Rain , Thunderstorm Heavy Thunderstorms and Rain
4:26 PM 60.8 °F 59.0 °F 94% 29.78 in 2.0 mi Variable 5.8 mph - 1.18 in Rain , Thunderstorm Heavy Thunderstorms and Rain
4:33 PM 60.8 °F 59.0 °F 94% 29.78 in 4.0 mi NNW 10.4 mph - 1.19 in Rain , Thunderstorm Light Thunderstorms and Rain
4:44 PM 60.8 °F 59.0 °F 94% 29.78 in 6.0 mi NNW 10.4 mph - 1.21 in Rain , Thunderstorm Light Thunderstorms and Rain
4:51 PM 60.8 °F 59.0 °F 94% 29.78 in 6.0 mi North 8.1 mph - 1.22 in Rain , Thunderstorm Thunderstorms and Rain
4:54 PM 60.1 °F 59.0 °F 96% 29.78 in 5.0 mi NNW 11.5 mph - 1.23 in Rain , Thunderstorm Thunderstorms and Rain
5:01 PM 60.8 °F 59.0 °F 94% 29.78 in 8.0 mi North 13.8 mph - 0.01 in Rain Light Rain
5:13 PM 60.8 °F 59.0 °F 94% 29.78 in 7.0 mi North 9.2 mph - 0.01 in Rain , Thunderstorm Light Thunderstorms and Rain
5:41 PM 60.8 °F 57.2 °F 88% 29.77 in 4.0 mi NNW 10.4 mph - 0.08 in Rain Rain
5:51 PM 60.8 °F 59.0 °F 94% 29.77 in 4.0 mi North 9.2 mph - 0.10 in Rain Rain
5:54 PM 60.1 °F 59.0 °F 96% 29.78 in 4.0 mi North 10.4 mph - 0.11 in Rain Rain
6:03 PM 60.8 °F 57.2 °F 88% 29.77 in 5.0 mi North 8.1 mph - 0.03 in Rain Rain
6:22 PM 60.8 °F 57.2 °F 88% 29.76 in 10.0 mi NNW 9.2 mph 18.4 mph 0.03 in Rain Light Rain
6:54 PM 60.1 °F 57.9 °F 93% 29.78 in 10.0 mi NW 5.8 mph - 0.05 in   Overcast
7:22 PM 60.8 °F 57.2 °F 88% 29.78 in 10.0 mi NW 3.5 mph - 0.00 in Rain , Thunderstorm Light Thunderstorms and Rain
7:54 PM 60.1 °F 59.0 °F 96% 29.77 in 5.0 mi Calm Calm - 0.04 in Rain , Thunderstorm Light Thunderstorms and Rain
8:03 PM 60.8 °F 59.0 °F 94% 29.77 in 6.0 mi Calm Calm - 0.01 in Rain Light Rain
8:15 PM 60.8 °F 59.0 °F 94% 29.77 in 6.0 mi Calm Calm - 0.02 in Rain Light Rain
8:54 PM 59.0 °F 59.0 °F 100% 29.76 in 3.0 mi NW 6.9 mph - 0.09 in Rain Heavy Rain
9:01 PM 59.0 °F 59.0 °F 100% 29.76 in 4.0 mi WNW 3.5 mph - 0.02 in Rain Rain
9:54 PM 59.0 °F 57.9 °F 96% 29.75 in 10.0 mi NW 5.8 mph - 0.04 in   Overcast
10:54 PM 59.0 °F 57.9 °F 96% 29.75 in 10.0 mi WSW 3.5 mph - 0.02 in Rain Light Rain
11:18 PM 59.0 °F 57.2 °F 94% 29.75 in 10.0 mi Variable 5.8 mph - 0.00 in   Overcast
11:27 PM 59.0 °F 57.2 °F 94% 29.75 in 10.0 mi WNW 5.8 mph - 0.00 in   Overcast
11:54 PM 57.9 °F 55.9 °F 93% 29.76 in 10.0 mi West 9.2 mph - 0.00 in   Overcast